QPF
0.00 0.00 0.01 0.01 0.01 0.01 0.01 0.01 0.01 0.01 0.01 0.01 0.01 0.01 0.01 0.01 0.01 0.01 0.00 0.00 0.00 0.01 0.01 0.01 0.01 0.01 0.01 0.01 0.01 0.01 0.00 0.00 0.00 0.00 0.00 0.00 0.01 0.00 0.00 0.00 0.00 0.00 0.00
0.00 0.00 0.01 0.01 0.01 0.01 0.01 0.01 0.01 0.01 0.01 0.01 0.01 0.01 0.01 0.01 0.01 0.01 0.00 0.00 0.00 0.01 0.02 0.01 0.01 0.01 0.01 0.00 0.00 0.00 0.00 0.00 0.00 0.00 0.00 0.00 0.00 0.00 0.00 0.00 0.00 0.00 0.00
0.00 0.00 0.01 0.01 0.01 0.01 0.01 0.01 0.01 0.01 0.01 0.00 0.00 0.01 0.01 0.01 0.01 0.01 0.00 0.00 0.00 0.01 0.01 0.01 0.01 0.00 0.00 0.00 0.00 0.00 0.00 0.00 0.00 0.00 0.00 0.00 0.00 0.00 0.00 0.00 0.00 0.00 0.00
0.00 0.00 0.00 0.01 0.01 0.01 0.01 0.01 0.01 0.01 0.01 0.00 0.00 0.00 0.01 0.01 0.01 0.00 0.00 0.00 0.00 0.00 0.00 0.00 0.00 0.00 0.00 0.00 0.00 0.00 0.00 0.00 0.00 0.00 0.00 0.00 0.00 0.00 0.00 0.00 0.00 0.00 0.00
0.00 0.00 0.00 0.01 0.01 0.01 0.01 0.01 0.01 0.01 0.00 0.00 0.00 0.00 0.00 0.00 0.00 0.00 0.00 0.00 0.00 0.00 0.00 0.00 0.00 0.00 0.00 0.00 0.00 0.00 0.00 0.00 0.00 0.00 0.00 0.00 0.00 0.00 0.00 0.00 0.00 0.00 0.00
0.00 0.00 0.01 0.01 0.01 0.01 0.01 0.01 0.01 0.00 0.00 0.00 0.00 0.00 0.00 0.00 0.00 0.00 0.00 0.00 0.00 0.00 0.00 0.00 0.00 0.00 0.00 0.00 0.00 0.00 0.00 0.00 0.00 0.00 0.00 0.00 0.00 0.00 0.00 0.00 0.00 0.00 0.00
0.00 0.00 0.01 0.02 0.02 0.01 0.01 0.01 0.01 0.00 0.00 0.00 0.00 0.00 0.00 0.00 0.00 0.00 0.00 0.00 0.00 0.00 0.00 0.00 0.00 0.00 0.00 0.00 0.00 0.00 0.00 0.00 0.00 0.00 0.00 0.00 0.00 0.00 0.00 0.00 0.00 0.00 0.00
0.00 0.00 0.01 0.02 0.02 0.02 0.01 0.01 0.01 0.01 0.00 0.00 0.00 0.00 0.00 0.00 0.00 0.00 0.00 0.00 0.00 0.00 0.00 0.00 0.00 0.00 0.00 0.00 0.00 0.00 0.00 0.00 0.00 0.00 0.00 0.00 0.00 0.00 0.01 0.00 0.00 0.00 0.01
0.00 0.00 0.01 0.02 0.02 0.02 0.01 0.01 0.01 0.01 0.01 0.00 0.00 0.00 0.00 0.00 0.00 0.00 0.00 0.00 0.00 0.00 0.00 0.00 0.00 0.00 0.00 0.00 0.00 0.00 0.00 0.00 0.00 0.00 0.00 0.00 0.00 0.00 0.00 0.00 0.00 0.01 0.01
0.00 0.00 0.01 0.02 0.02 0.02 0.01 0.01 0.01 0.01 0.01 0.00 0.00 0.00 0.00 0.00 0.00 0.00 0.00 0.00 0.00 0.00 0.00 0.00 0.00 0.00 0.00 0.00 0.00 0.00 0.00 0.00 0.00 0.00 0.00 0.00 0.00 0.00 0.00 0.00 0.01 0.01 0.01
0.00 0.00 0.01 0.01 0.01 0.01 0.01 0.01 0.01 0.01 0.01 0.01 0.00 0.00 0.00 0.00 0.00 0.00 0.00 0.00 0.00 0.00 0.00 0.00 0.01 0.00 0.00 0.00 0.00 0.00 0.00 0.00 0.00 0.00 0.00 0.00 0.00 0.00 0.00 0.01 0.01 0.01 0.01
0.00 0.00 0.00 0.01 0.01 0.01 0.01 0.01 0.02 0.01 0.01 0.00 0.00 0.00 0.00 0.00 0.00 0.00 0.00 0.00 0.00 0.00 0.00 0.00 0.00 0.00 0.00 0.00 0.00 0.00 0.00 0.00 0.00 0.00 0.00 0.00 0.00 0.00 0.01 0.01 0.01 0.01 0.01
0.00 0.00 0.00 0.00 0.00 0.01 0.01 0.01 0.01 0.01 0.01 0.00 0.00 0.00 0.00 0.00 0.00 0.00 0.00 0.00 0.00 0.00 0.00 0.00 0.00 0.00 0.00 0.00 0.00 0.00 0.00 0.00 0.00 0.00 0.00 0.00 0.00 0.00 0.01 0.01 0.01 0.01 0.00
0.00 0.00 0.00 0.00 0.00 0.01 0.01 0.01 0.01 0.01 0.01 0.00 0.00 0.00 0.00 0.00 0.00 0.00 0.00 0.00 0.00 0.00 0.00 0.00 0.00 0.00 0.00 0.00 0.00 0.00 0.00 0.00 0.00 0.00 0.00 0.00 0.00 0.00 0.00 0.00 0.00 0.00 0.00
0.00 0.00 0.00 0.00 0.00 0.00 0.01 0.00 0.00 0.00 0.00 0.00 0.00 0.00 0.00 0.00 0.00 0.00 0.00 0.00 0.00 0.00 0.00 0.00 0.00 0.00 0.00 0.00 0.00 0.00 0.00 0.00 0.00 0.00 0.00 0.00 0.00 0.00 0.00 0.00 0.00 0.00 0.00
0.00 0.00 0.00 0.00 0.00 0.00 0.00 0.00 0.00 0.00 0.00 0.00 0.00 0.00 0.00 0.00 0.00 0.00 0.00 0.00 0.00 0.00 0.00 0.00 0.00 0.00 0.00 0.00 0.00 0.00 0.00 0.00 0.00 0.00 0.00 0.00 0.00 0.00 0.00 0.00 0.00 0.00 0.00
0.00 0.00 0.00 0.00 0.00 0.00 0.00 0.00 0.00 0.00 0.00 0.00 0.00 0.00 0.00 0.00 0.00 0.00 0.00 0.00 0.00 0.00 0.00 0.00 0.00 0.00 0.00 0.00 0.00 0.00 0.00 0.00 0.00 0.00 0.00 0.00 0.00 0.00 0.00 0.00 0.00 0.00 0.00
0.00 0.00 0.00 0.00 0.00 0.00 0.00 0.00 0.00 0.00 0.00 0.00 0.00 0.00 0.00 0.00 0.00 0.00 0.00 0.00 0.00 0.00 0.00 0.00 0.00 0.00 0.00 0.00 0.00 0.00 0.00 0.00 0.00 0.00 0.00 0.00 0.00 0.00 0.00 0.00 0.00 0.00 0.00
0.00 0.00 0.00 0.00 0.00 0.00 0.00 0.00 0.00 0.00 0.00 0.00 0.00 0.00 0.00 0.00 0.00 0.00 0.00 0.00 0.00 0.00 0.00 0.00 0.00 0.00 0.00 0.00 0.00 0.00 0.00 0.00 0.00 0.00 0.00 0.00 0.00 0.00 0.00 0.00 0.00 0.00 0.00
0.00 0.00 0.00 0.00 0.00 0.00 0.00 0.00 0.01 0.00 0.00 0.00 0.00 0.00 0.00 0.00 0.00 0.00 0.00 0.00 0.00 0.00 0.00 0.00 0.00 0.00 0.00 0.00 0.00 0.00 0.00 0.00 0.00 0.00 0.00 0.00 0.00 0.00 0.00 0.00 0.00 0.00 0.00
0.00 0.00 0.00 0.00 0.00 0.00 0.00 0.00 0.01 0.00 0.00 0.00 0.00 0.00 0.00 0.00 0.00 0.00 0.00 0.00 0.00 0.00 0.01 0.00 0.00 0.00 0.00 0.00 0.00 0.00 0.00 0.00 0.00 0.00 0.00 0.00 0.00 0.00 0.00 0.00 0.00 0.00 0.00
0.00 0.00 0.00 0.00 0.00 0.00 0.00 0.00 0.00 0.00 0.00 0.00 0.00 0.00 0.00 0.00 0.00 0.00 0.00 0.00 0.01 0.01 0.00 0.00 0.00 0.00 0.00 0.00 0.00 0.00 0.00 0.00 0.00 0.00 0.00 0.00 0.00 0.00 0.00 0.00 0.00 0.00 0.00
0.00 0.00 0.00 0.00 0.00 0.00 0.00 0.00 0.00 0.00 0.00 0.00 0.00 0.00 0.00 0.00 0.00 0.01 0.01 0.01 0.01 0.00 0.00 0.00 0.00 0.00 0.00 0.00 0.00 0.00 0.00 0.00 0.00 0.00 0.00 0.00 0.00 0.00 0.00 0.00 0.00 0.00 0.00
0.00 0.00 0.00 0.00 0.00 0.00 0.00 0.00 0.00 0.00 0.00 0.00 0.00 0.00 0.00 0.00 0.01 0.01 0.01 0.01 0.01 0.01 0.01 0.01 0.01 0.00 0.00 0.00 0.00 0.00 0.00 0.00 0.00 0.00 0.00 0.00 0.00 0.00 0.00 0.00 0.00 0.00 0.00
0.00 0.00 0.00 0.00 0.00 0.00 0.00 0.00 0.00 0.00 0.00 0.00 0.00 0.00 0.00 0.00 0.00 0.01 0.01 0.01 0.01 0.01 0.01 0.01 0.01 0.01 0.01 0.01 0.01 0.01 0.00 0.00 0.00 0.00 0.00 0.00 0.00 0.00 0.00 0.00 0.00 0.00 0.00
0.00 0.00 0.00 0.00 0.00 0.00 0.00 0.00 0.00 0.00 0.00 0.00 0.00 0.00 0.00 0.00 0.00 0.00 0.00 0.00 0.00 0.01 0.01 0.01 0.01 0.01 0.01 0.01 0.01 0.00 0.00 0.00 0.00 0.00 0.00 0.00 0.00 0.00 0.00 0.00 0.00 0.00 0.00
MSLP
1013.67 1013.95 1014.33 1014.79 1015.27 1015.71 1016.08 1016.35 1016.51 1016.59 1016.64 1016.68 1016.77 1016.92 1017.11 1017.32 1017.51 1017.65 1017.72 1017.71 1017.65 1017.56 1017.47 1017.43 1017.43 1017.49 1017.58 1017.68 1017.76 1017.80 1017.78 1017.73 1017.64 1017.54 1017.44 1017.36 1017.29 1017.23 1017.16 1017.07 1016.97 1016.84 1016.69
1013.34 1013.67 1014.12 1014.66 1015.22 1015.75 1016.19 1016.51 1016.71 1016.80 1016.85 1016.90 1016.99 1017.15 1017.36 1017.60 1017.83 1018.01 1018.11 1018.13 1018.08 1018.00 1017.93 1017.89 1017.91 1017.98 1018.08 1018.18 1018.25 1018.27 1018.24 1018.15 1018.03 1017.90 1017.79 1017.70 1017.63 1017.57 1017.52 1017.46 1017.37 1017.26 1017.12
1013.03 1013.42 1013.94 1014.55 1015.19 1015.80 1016.30 1016.68 1016.91 1017.04 1017.10 1017.16 1017.26 1017.43 1017.66 1017.92 1018.17 1018.37 1018.50 1018.53 1018.50 1018.44 1018.38 1018.35 1018.38 1018.45 1018.55 1018.64 1018.70 1018.70 1018.64 1018.52 1018.38 1018.23 1018.10 1018.00 1017.93 1017.88 1017.84 1017.78 1017.70 1017.60 1017.47
1012.83 1013.26 1013.82 1014.49 1015.19 1015.86 1016.42 1016.85 1017.13 1017.29 1017.38 1017.46 1017.57 1017.75 1017.99 1018.25 1018.51 1018.73 1018.86 1018.91 1018.90 1018.84 1018.80 1018.78 1018.81 1018.89 1018.98 1019.06 1019.11 1019.09 1019.00 1018.87 1018.71 1018.55 1018.40 1018.29 1018.22 1018.16 1018.11 1018.05 1017.97 1017.86 1017.73
1012.75 1013.21 1013.81 1014.51 1015.24 1015.95 1016.56 1017.03 1017.35 1017.55 1017.68 1017.78 1017.91 1018.09 1018.33 1018.59 1018.84 1019.05 1019.19 1019.24 1019.24 1019.21 1019.18 1019.17 1019.21 1019.29 1019.38 1019.45 1019.48 1019.45 1019.35 1019.21 1019.04 1018.86 1018.72 1018.60 1018.50 1018.43 1018.36 1018.28 1018.18 1018.05 1017.92
1012.81 1013.28 1013.88 1014.59 1015.33 1016.05 1016.68 1017.19 1017.55 1017.79 1017.95 1018.09 1018.24 1018.42 1018.65 1018.90 1019.14 1019.34 1019.47 1019.53 1019.54 1019.52 1019.51 1019.53 1019.58 1019.66 1019.74 1019.81 1019.82 1019.78 1019.68 1019.53 1019.36 1019.19 1019.04 1018.91 1018.80 1018.70 1018.60 1018.48 1018.35 1018.20 1018.05
1012.98 1013.44 1014.02 1014.70 1015.43 1016.14 1016.78 1017.30 1017.69 1017.98 1018.18 1018.35 1018.52 1018.72 1018.95 1019.19 1019.41 1019.59 1019.72 1019.79 1019.81 1019.81 1019.82 1019.85 1019.92 1020.00 1020.07 1020.12 1020.13 1020.08 1019.98 1019.84 1019.67 1019.51 1019.36 1019.22 1019.10 1018.97 1018.83 1018.68 1018.50 1018.33 1018.16
1013.20 1013.64 1014.18 1014.82 1015.50 1016.18 1016.81 1017.34 1017.76 1018.08 1018.33 1018.54 1018.74 1018.96 1019.19 1019.43 1019.64 1019.82 1019.94 1020.02 1020.06 1020.08 1020.11 1020.15 1020.22 1020.30 1020.36 1020.40 1020.39 1020.33 1020.23 1020.09 1019.95 1019.80 1019.66 1019.52 1019.38 1019.23 1019.06 1018.87 1018.67 1018.47 1018.28
1013.39 1013.80 1014.29 1014.88 1015.51 1016.15 1016.76 1017.29 1017.73 1018.09 1018.39 1018.64 1018.89 1019.13 1019.38 1019.63 1019.84 1020.02 1020.15 1020.24 1020.29 1020.33 1020.38 1020.43 1020.49 1020.56 1020.60 1020.61 1020.59 1020.51 1020.41 1020.28 1020.15 1020.02 1019.90 1019.78 1019.64 1019.48 1019.29 1019.08 1018.85 1018.64 1018.44
1013.49 1013.87 1014.32 1014.85 1015.44 1016.04 1016.63 1017.16 1017.62 1018.02 1018.36 1018.67 1018.96 1019.25 1019.52 1019.78 1020.01 1020.20 1020.34 1020.44 1020.51 1020.56 1020.61 1020.66 1020.72 1020.76 1020.77 1020.76 1020.70 1020.62 1020.51 1020.39 1020.28 1020.17 1020.08 1019.98 1019.86 1019.70 1019.52 1019.30 1019.06 1018.84 1018.65
1013.45 1013.81 1014.24 1014.74 1015.29 1015.86 1016.43 1016.96 1017.45 1017.88 1018.27 1018.63 1018.97 1019.29 1019.60 1019.88 1020.13 1020.34 1020.49 1020.60 1020.68 1020.75 1020.80 1020.84 1020.87 1020.89 1020.87 1020.83 1020.75 1020.64 1020.53 1020.42 1020.33 1020.25 1020.19 1020.12 1020.03 1019.90 1019.73 1019.52 1019.30 1019.08 1018.89
1013.26 1013.63 1014.05 1014.54 1015.08 1015.64 1016.19 1016.73 1017.23 1017.69 1018.12 1018.52 1018.91 1019.27 1019.61 1019.92 1020.19 1020.41 1020.58 1020.71 1020.80 1020.86 1020.91 1020.94 1020.96 1020.94 1020.90 1020.83 1020.73 1020.61 1020.50 1020.40 1020.33 1020.29 1020.26 1020.23 1020.17 1020.08 1019.94 1019.76 1019.55 1019.34 1019.16
1012.93 1013.34 1013.79 1014.29 1014.83 1015.39 1015.95 1016.49 1017.00 1017.49 1017.94 1018.37 1018.79 1019.19 1019.56 1019.89 1020.18 1020.41 1020.59 1020.73 1020.82 1020.88 1020.93 1020.95 1020.95 1020.93 1020.87 1020.78 1020.68 1020.56 1020.45 1020.37 1020.32 1020.31 1020.32 1020.32 1020.31 1020.25 1020.15 1020.00 1019.81 1019.62 1019.44
1012.52 1012.97 1013.47 1014.01 1014.57 1015.15 1015.72 1016.26 1016.78 1017.27 1017.74 1018.19 1018.62 1019.04 1019.42 1019.77 1020.07 1020.32 1020.51 1020.65 1020.75 1020.82 1020.86 1020.88 1020.88 1020.86 1020.80 1020.72 1020.63 1020.52 1020.43 1020.37 1020.35 1020.36 1020.39 1020.43 1020.45 1020.43 1020.36 1020.24 1020.08 1019.90 1019.72
1012.07 1012.59 1013.14 1013.73 1014.33 1014.92 1015.50 1016.05 1016.57 1017.06 1017.52 1017.97 1018.41 1018.83 1019.22 1019.58 1019.89 1020.14 1020.34 1020.49 1020.60 1020.67 1020.72 1020.76 1020.77 1020.76 1020.73 1020.68 1020.61 1020.54 1020.47 1020.43 1020.43 1020.46 1020.51 1020.57 1020.62 1020.62 1020.58 1020.49 1020.35 1020.17 1019.99
1011.61 1012.20 1012.82 1013.45 1014.09 1014.71 1015.30 1015.85 1016.36 1016.84 1017.30 1017.73 1018.16 1018.57 1018.96 1019.32 1019.64 1019.90 1020.11 1020.27 1020.39 1020.48 1020.54 1020.60 1020.64 1020.67 1020.68 1020.67 1020.65 1020.61 1020.58 1020.57 1020.58 1020.62 1020.68 1020.75 1020.81 1020.83 1020.81 1020.73 1020.61 1020.44 1020.26
1011.16 1011.81 1012.48 1013.16 1013.83 1014.48 1015.08 1015.64 1016.15 1016.62 1017.06 1017.48 1017.90 1018.30 1018.68 1019.04 1019.36 1019.63 1019.85 1020.02 1020.16 1020.27 1020.36 1020.45 1020.53 1020.60 1020.66 1020.71 1020.73 1020.74 1020.75 1020.76 1020.78 1020.82 1020.88 1020.95 1021.01 1021.04 1021.03 1020.97 1020.86 1020.71 1020.52
1010.71 1011.40 1012.11 1012.82 1013.52 1014.20 1014.82 1015.39 1015.91 1016.37 1016.81 1017.22 1017.62 1018.01 1018.39 1018.74 1019.07 1019.35 1019.59 1019.78 1019.94 1020.07 1020.20 1020.32 1020.44 1020.56 1020.67 1020.76 1020.84 1020.89 1020.93 1020.95 1020.98 1021.02 1021.07 1021.13 1021.18 1021.22 1021.22 1021.18 1021.09 1020.95 1020.78
1010.23 1010.93 1011.66 1012.40 1013.12 1013.82 1014.48 1015.07 1015.61 1016.09 1016.53 1016.94 1017.33 1017.72 1018.09 1018.45 1018.79 1019.09 1019.34 1019.56 1019.74 1019.91 1020.06 1020.22 1020.37 1020.53 1020.68 1020.82 1020.93 1021.02 1021.08 1021.11 1021.14 1021.17 1021.20 1021.25 1021.29 1021.33 1021.35 1021.34 1021.28 1021.17 1021.02
1009.67 1010.36 1011.09 1011.84 1012.59 1013.32 1014.02 1014.66 1015.23 1015.74 1016.20 1016.63 1017.03 1017.41 1017.79 1018.16 1018.51 1018.83 1019.11 1019.35 1019.57 1019.76 1019.94 1020.13 1020.31 1020.50 1020.68 1020.84 1020.98 1021.08 1021.15 1021.19 1021.21 1021.22 1021.24 1021.27 1021.31 1021.36 1021.40 1021.42 1021.40 1021.33 1021.22
1008.98 1009.66 1010.38 1011.13 1011.91 1012.69 1013.43 1014.13 1014.76 1015.32 1015.82 1016.26 1016.68 1017.08 1017.46 1017.84 1018.20 1018.55 1018.86 1019.14 1019.38 1019.61 1019.82 1020.02 1020.23 1020.43 1020.63 1020.80 1020.95 1021.06 1021.13 1021.16 1021.17 1021.16 1021.16 1021.18 1021.22 1021.28 1021.34 1021.40 1021.43 1021.42 1021.36
1008.16 1008.81 1009.52 1010.28 1011.09 1011.91 1012.72 1013.49 1014.18 1014.80 1015.35 1015.83 1016.26 1016.67 1017.07 1017.46 1017.84 1018.21 1018.56 1018.87 1019.16 1019.41 1019.65 1019.87 1020.09 1020.30 1020.50 1020.68 1020.83 1020.94 1021.00 1021.02 1021.01 1020.99 1020.97 1020.98 1021.01 1021.08 1021.17 1021.27 1021.36 1021.41 1021.41
1007.21 1007.83 1008.52 1009.30 1010.14 1011.02 1011.90 1012.74 1013.51 1014.19 1014.78 1015.29 1015.75 1016.17 1016.58 1016.99 1017.39 1017.79 1018.17 1018.52 1018.85 1019.14 1019.41 1019.65 1019.88 1020.10 1020.31 1020.48 1020.63 1020.73 1020.79 1020.80 1020.78 1020.74 1020.71 1020.70 1020.72 1020.79 1020.90 1021.03 1021.17 1021.28 1021.35
1006.16 1006.76 1007.46 1008.25 1009.13 1010.06 1011.00 1011.91 1012.74 1013.47 1014.10 1014.64 1015.11 1015.55 1015.97 1016.39 1016.82 1017.25 1017.67 1018.07 1018.44 1018.77 1019.07 1019.34 1019.59 1019.82 1020.04 1020.22 1020.37 1020.48 1020.53 1020.54 1020.51 1020.46 1020.41 1020.38 1020.39 1020.46 1020.57 1020.72 1020.89 1021.05 1021.17
1005.07 1005.68 1006.38 1007.20 1008.11 1009.08 1010.07 1011.02 1011.90 1012.67 1013.32 1013.88 1014.36 1014.81 1015.24 1015.68 1016.13 1016.60 1017.07 1017.51 1017.93 1018.31 1018.65 1018.95 1019.23 1019.48 1019.71 1019.91 1020.07 1020.20 1020.27 1020.29 1020.26 1020.21 1020.14 1020.09 1020.08 1020.12 1020.22 1020.37 1020.55 1020.74 1020.90
1004.02 1004.64 1005.36 1006.19 1007.13 1008.13 1009.15 1010.13 1011.03 1011.81 1012.48 1013.04 1013.52 1013.97 1014.41 1014.87 1015.36 1015.87 1016.38 1016.88 1017.35 1017.77 1018.16 1018.49 1018.80 1019.08 1019.33 1019.56 1019.76 1019.92 1020.02 1020.07 1020.06 1020.01 1019.94 1019.87 1019.83 1019.84 1019.90 1020.03 1020.19 1020.38 1020.56
Thickness
5757 5754 5748 5746 5743 5741 5739 5738 5736 5735 5734 5733 5731 5730 5729 5728 5727 5725 5724 5723 5722 5721 5720 5719 5718 5717 5716 5714 5713 5712 5710 5709 5708 5707 5706 5706 5705 5704 5703 5702 5702 5701 5699
5760 5753 5747 5744 5741 5739 5737 5735 5733 5732 5731 5729 5728 5727 5725 5724 5723 5722 5720 5719 5718 5717 5716 5715 5713 5712 5710 5708 5707 5706 5704 5703 5702 5701 5700 5700 5698 5697 5696 5695 5694 5694 5693
5757 5751 5745 5742 5739 5737 5735 5733 5730 5729 5727 5726 5725 5723 5722 5720 5719 5718 5716 5715 5714 5712 5711 5709 5708 5706 5704 5703 5701 5700 5698 5697 5695 5695 5695 5695 5692 5691 5690 5688 5687 5686 5685
5754 5749 5745 5740 5737 5735 5732 5730 5728 5726 5724 5723 5722 5720 5718 5717 5715 5714 5712 5710 5709 5707 5705 5704 5702 5700 5699 5697 5695 5694 5692 5690 5689 5689 5690 5688 5686 5684 5683 5681 5680 5679 5678
5750 5746 5742 5737 5735 5732 5730 5727 5725 5723 5721 5720 5718 5717 5715 5713 5711 5709 5707 5705 5703 5702 5700 5698 5696 5695 5693 5691 5689 5688 5686 5684 5683 5684 5683 5681 5680 5677 5676 5674 5673 5672 5671
5747 5744 5739 5735 5732 5730 5727 5725 5722 5720 5719 5717 5715 5713 5711 5709 5707 5704 5702 5700 5698 5696 5695 5693 5691 5689 5687 5685 5683 5681 5679 5678 5679 5678 5676 5674 5673 5670 5669 5667 5666 5665 5664
5745 5741 5736 5732 5729 5727 5724 5722 5720 5717 5715 5713 5711 5709 5707 5705 5702 5700 5697 5695 5693 5692 5690 5688 5686 5684 5682 5680 5678 5675 5673 5672 5673 5671 5669 5667 5665 5663 5662 5660 5659 5658 5657
5741 5738 5734 5729 5726 5724 5722 5719 5717 5715 5712 5710 5708 5706 5703 5701 5698 5695 5693 5691 5689 5687 5685 5683 5680 5678 5676 5674 5671 5669 5667 5666 5666 5665 5662 5660 5657 5656 5655 5654 5652 5651 5650
5737 5734 5731 5727 5723 5721 5719 5716 5714 5711 5709 5706 5704 5702 5699 5696 5694 5691 5689 5686 5684 5682 5680 5677 5675 5673 5670 5668 5665 5663 5661 5660 5662 5658 5656 5654 5651 5649 5648 5646 5645 5644 5642
5733 5732 5730 5726 5723 5720 5717 5713 5711 5708 5706 5703 5700 5697 5695 5692 5689 5687 5684 5681 5679 5677 5674 5672 5669 5667 5664 5662 5659 5657 5655 5655 5655 5652 5650 5647 5644 5643 5641 5639 5638 5636 5634
5729 5729 5728 5726 5723 5719 5716 5712 5708 5705 5702 5699 5696 5693 5691 5689 5687 5683 5680 5677 5674 5671 5669 5666 5664 5661 5659 5656 5654 5652 5651 5651 5649 5646 5643 5639 5637 5636 5634 5632 5630 5628 5626
5727 5727 5726 5724 5721 5718 5714 5710 5707 5704 5700 5698 5695 5691 5688 5687 5684 5680 5675 5672 5669 5666 5663 5661 5658 5656 5655 5654 5650 5647 5648 5645 5643 5640 5636 5632 5630 5629 5627 5625 5623 5620 5618
5729 5726 5725 5723 5720 5716 5713 5709 5706 5703 5699 5696 5693 5689 5686 5683 5679 5676 5672 5668 5665 5662 5660 5656 5654 5653 5651 5648 5646 5644 5641 5639 5637 5634 5630 5625 5623 5621 5620 5617 5615 5613 5610
5727 5725 5723 5720 5718 5715 5712 5708 5705 5701 5698 5695 5691 5687 5684 5680 5677 5673 5670 5666 5663 5659 5656 5654 5651 5648 5645 5643 5640 5638 5635 5633 5630 5627 5623 5618 5616 5614 5612 5610 5607 5605 5602
5726 5724 5722 5719 5716 5713 5709 5706 5703 5700 5696 5693 5688 5685 5681 5678 5674 5671 5667 5662 5659 5656 5652 5649 5647 5644 5641 5638 5635 5632 5630 5627 5624 5620 5617 5612 5609 5606 5604 5602 5599 5597 5594
5727 5724 5722 5718 5715 5711 5708 5705 5702 5698 5694 5691 5686 5682 5679 5675 5672 5667 5663 5659 5656 5652 5649 5645 5642 5639 5636 5633 5630 5626 5624 5621 5618 5614 5611 5606 5602 5599 5596 5594 5591 5589 5586
5728 5725 5721 5718 5714 5710 5707 5703 5700 5696 5693 5689 5685 5680 5676 5672 5668 5663 5660 5656 5652 5648 5644 5641 5638 5634 5631 5628 5625 5621 5618 5615 5612 5608 5605 5601 5597 5592 5588 5586 5583 5580 5578
5727 5724 5721 5717 5713 5710 5706 5702 5698 5695 5691 5687 5683 5678 5674 5669 5665 5660 5657 5653 5648 5644 5640 5637 5633 5630 5627 5623 5620 5616 5613 5608 5606 5602 5599 5595 5591 5587 5582 5578 5575 5572 5570
5727 5724 5720 5716 5713 5709 5705 5700 5696 5692 5689 5685 5680 5676 5672 5667 5662 5657 5654 5649 5644 5640 5636 5632 5629 5626 5622 5618 5614 5610 5607 5604 5600 5596 5593 5589 5584 5580 5577 5572 5568 5565 5562
5726 5723 5719 5716 5712 5708 5702 5698 5693 5690 5686 5683 5679 5675 5670 5665 5660 5655 5650 5646 5641 5637 5632 5628 5624 5620 5616 5612 5608 5604 5602 5598 5595 5592 5588 5583 5578 5574 5571 5567 5563 5560 5556
5724 5722 5719 5716 5712 5707 5702 5697 5693 5689 5685 5681 5678 5673 5668 5663 5658 5653 5648 5643 5638 5634 5630 5626 5621 5616 5611 5607 5603 5601 5598 5594 5591 5586 5582 5579 5574 5569 5565 5561 5558 5554 5551
5725 5722 5720 5717 5713 5709 5705 5700 5695 5690 5685 5681 5675 5671 5666 5661 5656 5651 5646 5641 5636 5631 5627 5622 5617 5612 5607 5602 5600 5597 5596 5593 5587 5581 5577 5573 5569 5564 5560 5556 5552 5548 5545
5724 5723 5720 5718 5713 5709 5704 5698 5691 5686 5681 5677 5673 5669 5665 5660 5654 5649 5644 5639 5634 5629 5624 5619 5614 5608 5604 5598 5594 5592 5590 5591 5587 5580 5574 5569 5564 5560 5556 5551 5547 5543 5539
5725 5723 5720 5717 5713 5708 5703 5698 5693 5689 5685 5682 5676 5670 5664 5658 5653 5648 5642 5637 5632 5627 5622 5616 5611 5606 5600 5595 5589 5585 5583 5582 5578 5577 5572 5566 5560 5556 5552 5547 5542 5538 5533
5724 5721 5718 5715 5711 5707 5702 5698 5693 5689 5686 5682 5675 5669 5663 5657 5652 5646 5641 5635 5630 5624 5619 5614 5608 5603 5598 5594 5588 5582 5577 5572 5570 5568 5569 5564 5558 5553 5547 5542 5538 5533 5528
5720 5717 5715 5712 5709 5705 5701 5697 5693 5689 5685 5680 5674 5668 5662 5656 5650 5645 5639 5634 5628 5623 5617 5612 5606 5600 5595 5590 5585 5580 5575 5570 5567 5563 5561 5560 5556 5551 5543 5538 5533 5528 5523